Regional Weather Roundup
Issued by NWS

Home | Current Version | Previous Version | Text Only | Print | Product List | Glossary Off
Versions: 1 2 3 4 5 6 7 8 9 10 11 12 13 14 15 16 17 18 19 20 21 22 23 24 25 26 27 28 29 30 31 32 33 34 35 36 37 38 39 40 41 42 43 44 45 46 47 48 49 50

000
ASUS43 KLMK 201802
RWRKY
KENTUCKY REGIONAL WEATHER ROUNDUP
NATIONAL WEATHER SERVICE LOUISVILLE KY
100 PM EST SAT DEC 20 2014

NOTE "FAIR" INDICATES FEW OR NO CLOUDS BELOW 12,000 FEET
WITH NO SIGNIFICANT WEATHER AND/OR OBSTRUCTIONS TO VISIBILITY.

KYZ001>023-026-027-061>063-070>075-201900-
WESTERN AND SOUTH CENTRAL KENTUCKY

CITY           SKY/WX    TMP DP  RH WIND       PRES   REMARKS
PADUCAH        CLOUDY    40  28  62 CALM      30.27F
HENDERSON      CLOUDY    36  27  69 CALM      30.29F
OWENSBORO      CLOUDY    36  27  70 NE6       30.30F WCI  31
HOPKINSVILLE   CLOUDY    38  28  66 N2        30.27F
BOWLING GREEN  CLOUDY    40  27  59 NE6       30.26F
GLASGOW        NOT AVBL
$$

KYZ024-025-028>034-038-045-046-053-201900-
NORTH CENTRAL KENTUCKY

CITY           SKY/WX    TMP DP  RH WIND       PRES   REMARKS
LOUISVILLE/SDF PTSUNNY   37  26  64 E3        30.26F
LOUISVILLE/LOU CLOUDY    37  27  67 CALM      30.28F
FORT KNOX      CLOUDY    35  26  67 W5        30.25F WCI  31
$$

KYZ035>037-039>044-047>052-055>060-089>105-201900-
NORTHEAST KENTUCKY

CITY           SKY/WX    TMP DP  RH WIND       PRES   REMARKS
LEXINGTON      CLOUDY    35  25  66 N3        30.25F
COVINGTON      CLOUDY    32  23  69 CALM      30.26F
FRANKFORT      CLOUDY    34  24  67 CALM      30.25F
$$

KYZ054-064>069-076>088-106>120-201900-
SOUTHEAST KENTUCKY

CITY           SKY/WX    TMP DP  RH WIND       PRES   REMARKS
JACKSON        PTSUNNY   37  26  64 CALM      30.20F
LONDON         CLOUDY    38  27  64 W3        30.22F
SOMERSET       NOT AVBL
MIDDLESBORO    NOT AVBL
MONTICELLO     CLOUDY    40  28  62 CALM      30.26F
$$



USA.gov is the U.S. government's official web portal to all federal, state and local government web resources and services.